CDT,Max TemperatureF,Mean TemperatureF,Min TemperatureF,Max Dew PointF,MeanDew PointF,Min DewpointF,Max Humidity, Mean Humidity, Min Humidity, Max Sea Level PressureIn, Mean Sea Level PressureIn, Min Sea Level PressureIn, Max VisibilityMiles, Mean VisibilityMiles, Min VisibilityMiles, Max Wind SpeedMPH, Mean Wind SpeedMPH, Max Gust SpeedMPH,PrecipitationIn, CloudCover, Events, WindDirDegrees
2013-4-1,52,41,30,27,25,23,82,59,33,30.32,30.24,30.12,10,10,10,18,12,28,0.00,3,,74
2013-4-2,52,40,27,27,23,22,75,52,33,30.28,30.24,30.19,10,10,10,15,7,18,0.00,3,,203
2013-4-3,56,44,32,30,26,22,79,56,31,30.30,30.24,30.20,10,10,10,21,7,32,0.00,2,,194
2013-4-4,68,46,23,34,30,21,92,60,27,30.22,30.14,30.06,10,9,5,10,6,,0.00,0,,152
2013-4-5,80,59,38,39,31,27,76,40,17,30.08,29.81,29.56,10,10,5,28,11,36,0.00,1,,175
2013-4-6,75,59,43,38,32,24,61,35,16,29.81,29.73,29.57,10,10,4,39,17,56,0.00,1,,311
2013-4-7,67,53,39,52,42,28,86,62,48,29.82,29.71,29.60,10,10,6,13,6,18,0.04,3,Rain-Thunderstorm,57
2013-4-8,72,54,35,57,48,36,100,80,51,29.68,29.58,29.39,10,6,0,45,9,55,0.64,5,Fog-Rain-Thunderstorm,85
2013-4-9,42,31,20,46,23,14,93,86,78,30.25,29.91,29.51,10,4,0,62,25,59,0.07,8,Fog-Rain-Snow-Thunderstorm,352
2013-4-10,28,24,20,21,18,14,86,77,69,30.22,30.08,29.95,10,8,1,29,22,36,T,8,Snow,334
2013-4-11,42,32,22,27,22,16,85,72,55,30.03,29.88,29.79,10,10,10,23,13,28,T,4,,318
2013-4-12,56,41,26,37,29,22,96,71,37,30.06,29.99,29.93,10,10,6,20,9,23,0.01,3,Rain,293
2013-4-13,70,48,25,45,34,24,100,76,33,30.07,29.80,29.33,10,6,0,24,8,33,0.00,1,Fog,203
2013-4-14,57,46,35,45,29,10,82,46,17,29.78,29.48,29.20,10,10,8,37,18,53,0.00,1,,308
2013-4-15,49,41,32,26,22,17,67,51,37,30.07,29.93,29.77,10,10,10,17,11,21,0.00,5,,10
2013-4-16,46,39,32,27,26,24,82,63,45,30.22,30.14,30.06,10,10,10,21,13,28,0.00,8,,66
2013-4-17,39,34,28,31,28,24,93,83,62,30.10,29.99,29.89,10,6,1,39,19,50,T,8,Rain-Snow,13
2013-4-18,35,31,26,25,23,18,93,79,59,30.18,30.06,29.96,10,5,0,31,22,38,0.01,7,Fog-Snow,331
2013-4-19,59,40,20,30,25,17,85,59,36,30.15,30.07,30.02,10,10,10,22,13,33,0.00,2,,314
2013-4-20,60,46,32,34,29,25,79,58,33,30.09,30.03,29.96,10,10,10,21,11,30,0.00,3,,109
2013-4-21,71,51,31,42,34,29,92,59,25,30.06,30.01,29.96,10,10,7,18,6,23,T,2,,9
2013-4-22,48,39,29,43,38,23,100,90,72,30.37,30.03,29.91,10,6,0,31,14,40,0.80,8,Fog-Rain-Thunderstorm,44
2013-4-23,44,35,26,25,20,16,86,63,34,30.38,30.30,30.21,10,9,2,20,15,29,T,6,Snow,5
2013-4-24,63,43,22,28,22,17,88,56,19,30.29,30.22,30.14,10,10,9,23,9,32,0.00,1,,279
2013-4-25,75,53,30,31,26,20,79,43,17,30.27,30.07,29.89,10,10,9,30,9,41,0.00,1,,182
2013-4-26,79,61,43,45,29,22,77,35,13,30.15,30.02,29.93,10,10,10,23,8,34,0.00,0,,66
2013-4-27,81,59,36,45,37,21,100,61,11,30.14,30.04,29.89,10,8,0,16,5,18,0.00,0,Fog,206
2013-4-28,90,66,42,43,34,25,82,39,10,29.88,29.77,29.67,10,10,10,22,11,31,0.00,0,,285
2013-4-29,85,67,49,44,39,36,63,40,18,29.79,29.65,29.47,10,10,10,16,8,20,0.00,0,,129
2013-4-30,71,61,50,42,37,23,66,45,26,29.92,29.68,29.45,10,10,10,29,15,40,0.00,1,,37